Location: Clanezzo
(45.7500°N, 9.6000°E)
Time: 14:11:33
(UTC+00:00)

SPROUT - Pass Details

Date: 11 July 2022
Orbit: 588 x 598 km, 97.9° (Epoch: 19 August)

Event Time Altitude Azimuth Distance (km) Brightness Sun altitude
Exits shadow 00:18:11 63° 207° (SSW) 660 ? -21.1°
Maximum altitude 00:18:41 72° 258° (WSW) 624 ? -21.1°
Drops below altitude 10° 00:22:52 10° 343° (NNW) 1,931 ? -20.9°
Sets 00:25:03 0° 345° (NNW) 2,839 ? -20.9°
